www.pogodaiklimat.ru

Погода и климат >> Архив погоды >> Греция >> Салоники


ПОГОДА в Салониках

  • Прогноз погоды в Салониках
  • Монитор погоды в Салониках

АРХИВ ПОГОДЫ в Салониках

Время (UTC), дата Ветер
(напр.,м/с)
 
Видим.   Явления Облачность Т
(С)
Тd
(С)
f
(%)
Тe
(С)
Тes
(С)
Комфортность P
(гПа)
Po
(гПа)
Тmin
(С)
Tmax
(С)
R
(мм)
R24
(мм)
S
(см)
21 9.01
{5}
4000 м дымка {дождь} 10/10 150 м
[Frnb]
-0.2 -1.1 94 1003.5 1003.5
00 10.01 В 1
{2}
4000 м слаб. дождь со снегом 10/10 150 м
[Frnb]
0.0 -0.8 94 -2 -2 1003.5 1003.5 0.2
03 10.01
{3}
4000 м дымка {дождь} 10/10 150 м
[Frnb]
+0.2 -0.6 94 1003.1 1003.1
06 10.01
{3}
100 м туман ?/? +0.4 -0.5 94 1004.4 1004.3 -0.4 0.2
09 10.01
{3}
100 м туман ?/? +1.0 +0.3 95 1004.5 1004.5
12 10.01
{4}
900 м туман ?/? +2.6 +1.9 95 1003.7 1003.7
15 10.01
{3}
3000 м дымка {туман} 9/6 180 м
[Frnb Ac cuf Ci fib]
+3.6 +2.5 93 1004.6 1004.6
18 10.01
{3}
200 м туман ?/? +2.0 +1.2 94 1006.1 1006.1 +4.4
21 10.01
{3}
200 м туман 9/9 120 м
[Frnb]
+2.6 +1.6 93 1008.0 1008.0
00 11.01
{3}
100 м туман ?/? +2.0 +1.2 94 1009.8 1009.7
03 11.01
{3}
100 м туман ?/? +0.8 +0.2 96 1011.8 1011.7
06 11.01
{3}
800 м туман местами 5/5 50 м
[Frnb Ac trans]
-0.2 -0.8 96 1013.4 1013.4 -0.2
09 11.01 С 4
{7}
4000 м дымка {туман} 5/3 120 м
[Frnb Ac trans]
+5.2 -3.0 55 +2 +3 1015.3 1015.3
12 11.01 СЗ 5
{8}
10 км 4/1 240 м
[Frnb Ac trans Cs]
+7.4 -3.2 47 +4 +6 1014.8 1014.7
15 11.01 СЗ 6
{9}
10 км 8/3 450 м
[Cu hum Ac trans Cs]
+5.8 -2.0 57 +1 +1 1015.7 1015.7
18 11.01 СЗ 6
{12}
10 км 8/3 450 м
[Cu hum Ac trans Cs]
+4.6 -3.6 55 -0 -0 1016.5 1016.5 +7.4
21 11.01 СЗ 8
{13}
10 км 9/4 750 м
[Cu med, cong Ac und Cs]
+4.4 -2.1 63 -1 -1 1016.2 1016.1
00 12.01 С 5
{13}
10 км 9/3 750 м
[Cu med, cong Ac und Cs]
+4.2 -3.6 57 -0 -0 1016.2 1016.2
03 12.01 С 6
{11}
10 км 5/3 750 м
[Cu med, cong Ac und Cs]
+3.8 -3.6 58 -1 -1 1015.1 1015.0
06 12.01 С 5 10 км 9/4 240 м
[St Ac cuf]
+3.4 -5.4 52 -1 -1 1015.0 1015.0 +3.4
09 12.01 С 6
{10}
10 км 9/4 600 м
[Sc diur, vesp Ac cuf]
+4.6 -4.8 50 -0 0 1015.3 1015.3
12 12.01 СЗ 7
{13}
10 км 4/3 600 м
[Cu hum Ac und]
+6.2 -4.2 47 +2 +2 1012.8 1012.8
15 12.01 СЗ 7
{12}
10 км 8/1 540 м
[Cu med, cong Ac As]
+4.4 -3.1 58 -1 -1 1012.4 1012.3
18 12.01 С 6
{13}
10 км 4/1 540 м
[Cu med, cong Ac und]
+2.8 -5.9 53 -2 -2 1013.9 1013.8 +6.2
21 12.01 С 6
{14}
10 км 4/1 540 м
[Cu med, cong Ac und]
+2.0 -6.6 53 -3 -3 1014.7 1014.6
00 13.01 С 5
{12}
10 км 1/1 300 м
[Cu med, cong Ac lent]
+1.8 -7.2 51 -3 -3 1014.4 1014.4
03 13.01 СЗ 7
{11}
10 км 1/1 300 м
[Cu med, cong Ac lent]
+1.2 -6.1 58 -5 -5 1012.8 1012.7
06 13.01
{3}
10 км 1/1 300 м
[Cu med, cong]
-3.4 -7.0 76 1013.4 1013.3 -3.4
09 13.01 СЗ 4
{7}
10 км 1/0
[Ac trans]
+3.2 -4.4 57 -1 +2 1013.0 1013.0
12 13.01 СЗ 5
{8}
10 км 3/0
[Ac trans Ci fib]
+4.8 -5.0 49 +1 +2 1011.0 1011.0
15 13.01 СЗ 5
{6}
10 км 6/1 600 м
[Cu med, cong Ac trans Ci fib]
+5.0 -3.4 55 +1 +1 1009.5 1009.4
18 13.01
{5}
10 км 4/1 600 м
[Cu med, cong Ac trans Ci fib]
+1.2 -4.3 67 1009.5 1009.5 +5.2
21 13.01 В 2
{3}
10 км 5/1 600 м
[Cu med, cong Ac trans]
-0.8 -4.2 78 -4 -4 1009.1 1009.1
00 14.01 В 3
{4}
10 км 3/1 600 м
[Cu med, cong Ac trans]
-1.4 -4.5 79 -6 -6 1007.2 1007.2
03 14.01
{5}
10 км 3/1 600 м
[Cu med, cong Ac trans]
-2.6 -6.0 77 1005.4 1005.3
06 14.01 ЮВ 3 10 км 4/1 600 м
[Cu med, cong Ac trans]
-3.0 -6.3 78 -8 -8 1004.0 1004.0 -3.0
09 14.01 З 3
{4}
10 км 8/1 600 м
[Cu med, cong Ac trans Ci fib]
+3.6 -3.1 62 +1 +3 1004.0 1004.0
12 14.01 З 2
{6}
10 км 9/3 540 м
[Cu hum Ac trans Ci fib]
+4.8 -2.3 60 +3 +4 1002.2 1002.1
15 14.01
{4}
10 км 9/3 600 м
[Cu hum Ac trans Ci fib]
+4.8 -1.5 64 1001.9 1001.8
18 14.01 СЗ 2
{5}
10 км 9/3 600 м
[Cu hum Ac trans Ci fib]
+3.6 -1.4 70 +1 +1 1002.3 1002.3 +5.2
21 14.01 СЗ 4
{6}
10 км 8/3 600 м
[Cu hum Ac trans Ci fib]
+4.2 -0.4 72 0 0 1003.1 1003.1
00 15.01 С 5
{13}
10 км 8/3 600 м
[Cu hum Ac trans Ci fib]
+6.2 -1.6 57 +2 +2 1004.0 1004.0
03 15.01 С 8
{13}
10 км 8/3 600 м
[Cu hum Ac trans Ci fib]
+6.2 -4.2 47 +1 +1 1004.1 1004.1
06 15.01 С 8 10 км 8/3 600 м
[Cu hum Ac trans Ci fib]
+5.2 -6.3 43 0 0 1005.7 1005.7 +2.3
09 15.01 СЗ 16
{23}
10 км 5/3 600 м
[Cu hum Ac trans Ci fib]
+5.8 -5.8 43 -1 -1 1007.1 1007.1
12 15.01 СЗ 17
{26}
10 км 1/1 600 м
[Cu hum]
+5.6 -6.0 43 -1 -1 1006.6 1006.6
15 15.01 СЗ 15
{26}
10 км 1/1 600 м
[Cu hum]
+4.4 -7.1 43 -3 -3 1009.6 1009.6
18 15.01 С 12
{22}
10 км 1/1 600 м
[Cu hum]
+3.4 -7.0 46 -4 -4 1013.3 1013.2 +5.8
21 15.01 С 8
{21}
10 км 1/1 600 м
[Cu hum]
+2.8 -10.0 38 -3 -3 1017.9 1017.9
00 16.01 С 7
{17}
10 км 1/1 600 м
[Cu hum]
+2.6 -6.5 51 -3 -3 1018.8 1018.8
03 16.01
{13}
10 км 3/1 600 м
[Cu hum Ac lent]
+1.8 -8.1 48 1019.1 1019.1
06 16.01
{10}
10 км 1/1 600 м
[Cu hum Ac lent]
-1.2 -7.7 61 1020.0 1019.9 -1.3
09 16.01
{5}
10 км 1/0
[Ac lent]
+5.4 -7.7 38 1020.2 1020.2
12 16.01 СЗ 6
{10}
10 км 1/0
[Ac lent Ci fib]
+8.6 -5.9 35 +6 +7 1017.8 1017.7
15 16.01 СЗ 3
{9}
10 км 1/0
[Ac lent Ci fib]
+8.4 -1.0 52 +6 +6 1017.5 1017.5
18 16.01
{6}
10 км 1/0
[Ac lent]
+4.4 -2.9 59 1018.7 1018.6 +9.1

 

Местоположение метеостанции Салоники (Греция): широта 40.52 долгота 22.97 высота над уровнем моря 4 м.

В архиве по умолчанию представлена погода в Салониках за последнюю неделю. Архивные данные за месяц целиком и за предыдущие месяцы, начиная с января 2011 года, Вы можете получить, выбрав интересующий диапазон дат из раскрывающегося списка и нажав кнопку "Ввод!".


*Определитесь, кто Вы:
робот инопланетянин человек

Внимание! Время в таблицах - всемирное. Для получения местного времени необходимо прибавить поправку, которая равна 2 ч.

Смотрите также архив погоды в соседних городах и на ближайших метеорологических станциях:

Погода в Серре (Греция) (79 км)
Погода в Гевгелии (Македония) (80 км)
Погода в Козани (Греция) (104 км)
Погода в Струмице (Македония) (105 км)
Погода в Ларисе (Греция) (110 км)
Погода в Сандански (Болгария) (114 км)
Погода в Демир-Капия (Македония) (117 км)
Погода в Берово (Македония) (134 км)
Погода во Флорине (Греция) (136 км)
Погода в Кастории (Греция) (143 км)

Пояснения к столбцам:

Ветер - указаны скорость ветра в м/с - средняя за 10 мин, порывы в срок и между сроками (в фигурных скобках) и направление, откуда дует ветер: С - северный, СВ - северо-восточный, В - восточный, ЮВ - юго-восточный, Ю - южный, ЮЗ - юго-западный, З - западный, СЗ - северо-западный.
Видимость - горизонтальная дальность видимости в метрах или километрах. При видимости от 1 до 10 км при отсутствии осадков обычно наблюдается дымка, при ухудшении видимости до 1 км и менее - туман. В сухую погоду видимость может ухудшаться дымом, пылью или мглою.
Явления - указаны атмосферные явления, наблюдавшиеся в срок или в последний час перед сроком; фигурными скобками обозначены явления, наблюдавшиеся между сроками (за 1-3 часа до срока); квадратными скобками обозначены град или гололедные отложения с указанием их диаметра в мм.
Облачность - указаны через наклонную черту общая и нижняя облачность в баллах и высота нижней границы облаков в метрах; квадратными скобками обозначены формы облаков: Ci - перистые, Cs - перисто-слоистые, Cc - перисто-кучевые, Ac - высококучевые, As - высокослоистые, Sc - слоисто-кучевые, Ns - слоисто-дождевые, Cu - кучевые, Cb - кучево-дождевые. Подробнее классификацию облаков см. в Атласе облаков (PDF).
T - Температура воздуха - температура, измеренная на высоте 2 м над землей.
Td - Температура точки росы - температура, при понижении до которой содержащийся в воздухе водяной пар достигнет насыщения.
f - Относительная влажность воздуха - влажноcть воздуха, измеренная на высоте 2 м над землей.
Te - Эффективная температура - температура, которую ощущает одетый по сезону человек в тени. Характеристика душности погоды. При расчете учитывается влияние влажности воздуха и скорости ветра на теплоощущения человека.
Tes - Эффективная температура на солнце - температура, которую ощущает человек, с поправкой на солнечный нагрев. Характеристика знойности погоды. Зависит от высоты солнца над горизонтом, облачности и скорости ветра. Ночью, в пасмурную погоду, а также при ветре 12 м/с и более поправка равна нулю.
P - Атмосферное давление - приведенное к уровню моря атмосферное давление.
Po - Атмосферное давление - измеренное на уровне метеостанции атмосферное давление.
Tmin - Минимальная температура - минимум температуры воздуха на высоте 2 м над землей.
Tmax - Максимальная температура - максимум температуры воздуха на высоте 2 м над землей.
R - Количество осадков - Количество выпавших осадков за период времени, мм. При наведении курсора мыши на число - период времени, за который выпало указанное количество осадков.
R24 - Количество осадков - Количество выпавших осадков за 24 часа, мм.
S - Снежный покров - Высота снежного покрова, см. При наведении курсора мыши на число - состояние снежного покрова и степень покрытия местности в баллах.